Location: North Runcton
(52.7000°N, 0.4333°E)
Time: 18:20:11
(UTC+00:00)

MetOp-A - Pass Details

Date: 19 May 2025
Orbit: 521 x 774 km, 98.3° (Epoch: 22 June)

Event Time Altitude Azimuth Distance (km) Brightness Sun altitude
Exits shadow 22:11:09 20° 139° (SE) 1,735 5.2 -13.9°
Maximum altitude 22:14:37 56° 68° (ENE) 925 4.4 -14.1°
Drops below altitude 10° 22:19:41 10° 352° (N) 2,333 7.8 -14.4°
Sets 22:22:02 0° 348° (NNW) 3,253 9.0 -14.6°
